Location: Wiesbaden
(50.0830°N, 8.2500°E)
Time: 05:34:19
(UTC+01:00)

Envisat - Visible Passes

Search period start: 14 November 2019 00:00
Search period end: 24 November 2019 00:00
Orbit: 764 x 766 km, 98.1° (Epoch: 13 November)

Date Brightness Start Highest point End Pass type
(mag) Time Alt. Az. Time Alt. Az. Time Alt. Az.
14 Nov 4.9 06:45:40 10° NNE 06:50:20 35° E 06:54:59 10° SSE visible
14 Nov 2.9 18:04:33 10° SSE 18:09:36 73° ENE 18:14:42 10° N visible
14 Nov 5.7 19:45:45 10° SW 19:49:12 18° W 19:52:38 10° NW visible
15 Nov 5.9 06:09:45 10° NE 06:13:12 18° E 06:16:39 10° SE visible
15 Nov 3.5 17:28:21 10° SE 17:33:00 37° ENE 17:37:40 10° N visible
15 Nov 4.6 19:07:24 10° SSW 19:12:03 35° W 19:16:43 10° NNW visible
16 Nov 3.3 18:30:03 10° S 18:35:06 71° WSW 18:40:13 10° NNW visible
16 Nov 6.2 20:13:56 10° W 20:15:04 11° W 20:16:13 10° WNW visible
17 Nov 5.2 06:34:33 10° NNE 06:38:58 29° E 06:43:22 10° SSE visible
17 Nov 3.0 17:53:23 10° SSE 17:58:22 59° ENE 18:03:23 10° N visible
17 Nov 5.4 19:33:52 10° SW 19:37:47 22° W 19:41:43 10° NW visible
18 Nov 6.1 05:58:58 10° NE 06:01:46 15° E 06:04:34 10° ESE visible
18 Nov 3.7 17:17:23 10° SE 17:21:49 31° ENE 17:26:15 10° N visible
18 Nov 4.2 18:55:53 10° S 19:00:42 43° W 19:05:34 10° NNW visible
19 Nov 4.3 06:59:44 10° NNE 07:04:40 47° E 07:09:32 10° S visible
19 Nov 3.0 18:18:44 10° SSE 18:23:50 86° WSW 18:28:57 10° NNW visible
19 Nov 6.0 20:01:09 10° WSW 20:03:37 13° W 20:06:07 10° NW visible
20 Nov 5.6 06:23:30 10° NE 06:27:36 24° E 06:31:40 10° SE visible
20 Nov 3.2 17:42:16 10° SE 17:47:08 49° ENE 17:52:02 10° N visible
20 Nov 5.1 19:22:08 10° SSW 19:26:24 27° W 19:30:42 10° NW visible
21 Nov 6.3 05:48:31 10° ENE 05:50:20 12° E 05:52:08 10° ESE visible
21 Nov 3.9 17:06:29 10° ESE 17:10:38 26° ENE 17:14:49 10° N visible
21 Nov 3.8 18:44:25 10° S 18:49:23 53° W 18:54:23 10° NNW visible
22 Nov 4.7 06:48:34 10° NNE 06:53:19 38° E 06:58:03 10° SSE visible
22 Nov 2.9 18:07:29 10° SSE 18:12:33 78° ENE 18:17:39 10° NNW visible
22 Nov 5.8 19:48:59 10° SW 19:52:12 17° W 19:55:26 10° NW visible
23 Nov 5.9 06:12:32 10° NE 06:16:12 20° E 06:19:51 10° SE visible
23 Nov 3.4 17:31:13 10° SE 17:35:55 40° ENE 17:40:40 10° N visible
23 Nov 4.7 19:10:29 10° SSW 19:15:02 33° W 19:19:37 10° NNW visible
